SES-11 (ECHOSTAR 105)

Last updated on Mon Feb 10 2025 00:02:45 GMT+0000 (Coordinated Universal Time)

1 42967U 17063A 25040.52064262 -.00000099 00000+0 00000+0 0 9990 2 42967 0.0123 55.2819 0003257 263.6422 263.3777 1.00274358 26786
UTC large
Height (km)
Speed (km/s)
/
Latitude / Longitude
Inclination (degrees)
Orbital Period (minutes)
Azimuth
Elevation
Range (km)
Doppler Factor

Next 0 passes for location: London (51.5072 / 0.1276)

Sorry there are no passes over London.